Location: Newark
(46.0000°N, 8.8667°E)
Time: 04:47:05
(UTC+00:00)

Envisat - Visible Passes

Search period start: 29 September 2020 00:00
Search period end: 09 October 2020 00:00
Orbit: 764 x 766 km, 98.1° (Epoch: 28 September)

Date Brightness Start Highest point End Pass type
(mag) Time Alt. Az. Time Alt. Az. Time Alt. Az.
29 Sep 6.0 04:22:48 10° NE 04:26:24 19° E 04:29:59 10° SE visible
01 Oct 5.2 04:47:32 10° NNE 04:52:05 32° E 04:56:35 10° SSE visible
01 Oct 6.0 17:44:45 10° SW 17:48:33 21° W 17:52:23 10° NW visible
02 Oct 6.2 04:11:58 10° NE 04:14:55 15° E 04:17:50 10° SE visible
03 Oct 6.5 18:12:18 10° WSW 18:14:19 12° W 18:16:20 10° WNW visible
04 Oct 5.6 04:36:24 10° NE 04:40:38 26° E 04:44:49 10° SSE visible
04 Oct 5.6 17:32:52 10° SSW 17:37:05 26° W 17:41:19 10° NW visible
05 Oct 6.5 04:01:28 10° ENE 04:03:23 12° E 04:05:18 10° ESE visible
06 Oct 6.3 17:59:49 10° SW 18:02:48 16° W 18:05:47 10° NW visible
07 Oct 5.9 04:25:22 10° NE 04:29:10 21° E 04:32:55 10° SE visible
07 Oct 5.2 17:21:06 10° SSW 17:25:37 32° W 17:30:11 10° NNW visible
